sat.trackr.live / text

‹ back to catalog

STARLINK-32662

NORAD 62215 · 2024-229Z

PAYLOAD ACTIVE UNKNOWN

§ Identity

Operator
Country
US
Launch date
2024-12-04
Launch site
AFETR
Launch vehicle
Mass (kg)
RCS (m²)

Purposes: comms

External: N2YO · Heavens-Above · Gunter

§ Orbital elements

Epoch: 2026-09-21T08:32:13.036416Z

Period
94.27 min
Inclination
43.0014°
Eccentricity
0.0001400
Mean motion
15.27583185 rev/d
Perigee alt
482.1 km
Apogee alt
484.0 km
Semi-major
6,861.2 km
B*
2.2522e-4
RAAN
245.8920°
Arg perigee
270.6963°
Mean anomaly
89.3728°
Rev number
10,048

§ Raw data

STARLINK-326621 62215U 24229Z   26264.35570644  .00005941  00000+0  22522-3 0  99932 62215  43.0014 245.8920 0001400 270.6963  89.3728 15.27583185100483

JSON: /api/v1/satellites/62215 · /tle

For live sub-satellite position, see the globe view (requires WebGL).

§ Visibility from observer

Set your observer location to see the next 7 days of passes ≥ 10°. The values pass through the URL so the page stays shareable.

No JS? Fill the form by hand. The geolocation button needs JavaScript.